TimeEDT,TemperatureF,Dew PointF,Humidity,Sea Level PressureIn,VisibilityMPH,Wind Direction,Wind SpeedMPH,Gust SpeedMPH,PrecipitationIn,Events,Conditions,WindDirDegrees,DateUTC
12:53 AM,79.0,71.1,77,30.05,10.0,SW,3.5,-,N/A,,Mostly Cloudy,230,2013-08-03 04:53:00
1:53 AM,79.0,72.0,79,30.05,10.0,SSW,4.6,-,N/A,,Mostly Cloudy,200,2013-08-03 05:53:00
2:53 AM,80.1,73.0,79,30.05,10.0,Calm,Calm,-,N/A,,Mostly Cloudy,0,2013-08-03 06:53:00
3:53 AM,80.1,73.0,79,30.03,10.0,South,3.5,-,N/A,,Mostly Cloudy,190,2013-08-03 07:53:00
4:53 AM,80.1,73.0,79,30.04,10.0,Calm,Calm,-,N/A,,Mostly Cloudy,0,2013-08-03 08:53:00
5:53 AM,80.1,73.0,79,30.04,10.0,SSE,3.5,-,N/A,,Scattered Clouds,160,2013-08-03 09:53:00
6:53 AM,81.0,73.0,77,30.06,10.0,SSE,4.6,-,N/A,,Scattered Clouds,160,2013-08-03 10:53:00
7:53 AM,81.0,73.0,77,30.08,10.0,SSE,5.8,-,N/A,,Mostly Cloudy,150,2013-08-03 11:53:00
8:53 AM,82.9,73.0,72,30.09,10.0,SSE,8.1,-,N/A,,Mostly Cloudy,160,2013-08-03 12:53:00
9:53 AM,82.0,70.0,67,30.10,10.0,South,6.9,-,N/A,,Mostly Cloudy,170,2013-08-03 13:53:00
10:53 AM,81.0,70.0,69,30.11,10.0,SSE,3.5,-,N/A,,Mostly Cloudy,160,2013-08-03 14:53:00
11:53 AM,82.0,73.0,74,30.11,10.0,South,3.5,-,N/A,,Mostly Cloudy,170,2013-08-03 15:53:00
12:53 PM,84.0,75.0,74,30.12,10.0,SE,5.8,-,0.00,Rain,Light Rain,140,2013-08-03 16:53:00
1:53 PM,84.0,73.9,72,30.11,10.0,SE,4.6,-,0.00,,Mostly Cloudy,130,2013-08-03 17:53:00
2:53 PM,86.0,73.9,67,30.09,10.0,South,4.6,-,0.00,,Mostly Cloudy,180,2013-08-03 18:53:00
3:14 PM,86.0,75.2,70,30.10,10.0,South,8.1,-,0.00,Rain-Thunderstorm,Light Thunderstorms and Rain,190,2013-08-03 19:14:00
3:41 PM,78.8,68.0,69,30.12,2.0,South,19.6,28.8,0.00,Rain-Thunderstorm,Heavy Thunderstorms and Rain,170,2013-08-03 19:41:00
3:53 PM,75.9,69.1,79,30.10,2.0,SSE,10.4,-,0.06,Rain-Thunderstorm,Heavy Thunderstorms and Rain,160,2013-08-03 19:53:00
4:02 PM,75.2,69.8,83,30.10,4.0,South,9.2,-,0.02,Rain-Thunderstorm,Thunderstorms and Rain,170,2013-08-03 20:02:00
4:27 PM,75.2,69.8,83,30.09,10.0,SSW,9.2,-,0.02,Rain,Light Rain,210,2013-08-03 20:27:00
4:53 PM,75.9,68.0,76,30.10,10.0,South,10.4,-,0.02,,Mostly Cloudy,190,2013-08-03 20:53:00
5:53 PM,77.0,70.0,79,30.10,10.0,WSW,4.6,-,0.01,Rain,Light Rain,240,2013-08-03 21:53:00
6:53 PM,78.1,71.1,79,30.08,10.0,Calm,Calm,-,0.00,,Overcast,0,2013-08-03 22:53:00
7:53 PM,77.0,71.1,82,30.09,10.0,WNW,4.6,-,N/A,,Mostly Cloudy,300,2013-08-03 23:53:00
8:53 PM,77.0,72.0,84,30.09,10.0,Calm,Calm,-,N/A,,Mostly Cloudy,0,2013-08-04 00:53:00
9:53 PM,77.0,72.0,84,30.10,10.0,SSE,3.5,-,N/A,,Overcast,160,2013-08-04 01:53:00
10:53 PM,78.1,72.0,81,30.12,10.0,Calm,Calm,-,N/A,,Overcast,0,2013-08-04 02:53:00
11:53 PM,78.1,72.0,81,30.12,10.0,Calm,Calm,-,N/A,,Mostly Cloudy,0,2013-08-04 03:53:00